Simultaneous Nadir Overpasses (SNOs) Predictions

Prediction of SNOs between AQUA and METOP-B Satellite Orbit:

Table of predicted SNOs for the next 14.0 days since TLE Epoch: 1/1/2016
Index Date (AQUA) Time (AQUA) Lat,Lon (AQUA) SZA (AQUA ) Date (METOP-B) Time (METOP-B) Lat,Lon (METOP-B) SZA (METOP-B ) Distance(km) Time Diff (sec)
1 01/01/2016 13:39:36 73.90, -30.87 96.93 01/01/2016 13:40:26 73.89, -30.76 96.91 3.68 50
2 01/04/2016 07:34:46 73.31, 61.56 96.06 01/04/2016 07:33:38 73.25, 59.54 96.08 65.07 68
3 01/04/2016 08:24:21 -73.79,-131.82 83.44 01/04/2016 08:24:09 -73.81,-131.88 83.42 2.77 12
4 01/04/2016 09:13:50 73.88, 35.61 96.66 01/04/2016 09:14:47 73.88, 35.64 96.66 0.73 57
5 01/07/2016 03:09:05 73.58, 127.45 96.04 01/07/2016 03:07:54 73.50, 126.48 96.00 31.65 71
6 01/07/2016 03:58:35 -73.79, -65.38 83.74 01/07/2016 03:58:30 -73.80, -65.49 83.73 3.68 5
7 01/07/2016 04:48:04 73.89, 102.05 96.36 01/07/2016 04:49:08 73.87, 102.02 96.34 1.74 64
8 01/09/2016 22:43:22 73.76,-166.50 95.87 01/09/2016 22:42:09 73.78,-166.45 95.90 3.26 73
9 01/09/2016 23:32:49 -73.81, 1.02 84.08 01/09/2016 23:32:50 -73.84, 1.01 84.06 2.87 1
10 01/10/2016 00:22:18 73.91, 168.44 96.02 01/10/2016 00:23:28 73.91, 168.51 96.01 2.36 70
11 01/12/2016 18:17:34 73.75,-100.04 95.44 01/12/2016 18:16:29 73.77,-100.08 95.47 2.07 65
12 01/12/2016 19:07:02 -73.86, 67.37 84.46 01/12/2016 19:07:10 -73.82, 67.37 84.49 3.89 8
13 01/12/2016 19:56:33 74.06,-125.45
